Location: Melque
(41.0517°N, 4.4694°W)
Time: 04:31:02
(UTC+00:00)

SPOT 1/Viking Rocket - Pass Details

Date: 11 December 2025
Orbit: 772 x 790 km, 98.2° (Epoch: 13 January)

Event Time Altitude Azimuth Distance (km) Brightness Sun altitude
Rises 17:33:18 0° 135° (SE) 3,273 6.5 -8.2°
Reaches altitude 10° 17:35:54 10° 123° (ESE) 2,349 5.7 -8.6°
Maximum altitude 17:40:14 28° 67° (ENE) 1,461 4.4 -9.4°
Drops below altitude 10° 17:44:35 10° 10° (N) 2,361 5.7 -10.2°
Sets 17:47:12 0° 359° (N) 3,293 6.6 -10.6°
